EW4792 Weather Reports


Display with metric or nautical units.
time (UTC)temp
F
wind
direction
speed
MPH
gust
MPH
rain 1hr
in
rain 24hr
in
rain mn
in
humidity
%
barometer
mb
20260505163121 73 205 8.0 14.0 0.00 0.00 0.00 90 1010.5
20260505162629 73 222 11.0 14.0 0.00 0.00 0.00 90 1010.4
20260505162127 73 224 9.0 14.0 0.00 0.00 0.00 90 1010.4
20260505161624 73 201 8.0 12.0 0.00 0.00 0.00 90 1010.3
20260505161127 73 222 8.0 13.0 0.00 0.00 0.00 90 1010.3
20260505160622 72 206 8.0 13.0 0.00 0.00 0.00 90 1010.2
20260505160120 72 229 8.0 15.0 0.00 0.00 0.00 90 1010.3
20260505153151 72 214 9.0 11.0 0.00 0.00 0.00 90 1010.3
20260505152645 71 199 8.0 12.0 0.00 0.00 0.00 91 1010.3
20260505152125 71 214 8.0 12.0 0.00 0.00 0.00 91 1010.3
20260505151623 71 206 9.0 12.0 0.00 0.00 0.00 90 1010.2
20260505151204 71 223 8.0 9.0 0.00 0.00 0.00 90 1010.3
20260505150613 71 223 5.0 8.0 0.00 0.00 0.00 91 1010.3
20260505150155 71 213 6.0 10.0 0.00 0.00 0.00 91 1010.3
20260505140159 71 218 10.0 18.0 0.00 0.00 0.00 91 1010.3
20260505130157 71 221 14.0 19.0 0.00 0.00 0.00 91 1009.6
20260505124656 71 205 12.0 15.0 0.00 0.00 0.00 90 1009.6
20260505124133 71 203 13.0 15.0 0.00 0.00 0.00 90 1009.5
20260505123653 71 197 10.0 14.0 0.00 0.00 0.00 90 1009.5
20260505123145 71 222 11.0 16.0 0.00 0.00 0.00 90 1009.4
20260505122657 71 210 10.0 16.0 0.00 0.00 0.00 90 1009.3
20260505122148 71 213 11.0 16.0 0.00 0.00 0.00 90 1009.3
20260505121644 71 216 10.0 12.0 0.00 0.00 0.00 90 1009.1
20260505121141 71 205 10.0 14.0 0.00 0.00 0.00 90 1009.1
20260505120624 71 215 10.0 16.0 0.00 0.00 0.00 90 1009.0
20260505120122 71 228 11.0 16.0 0.00 0.00 0.00 90 1009.1
20260505115644 71 211 11.0 16.0 0.00 0.00 0.00 90 1009.1
20260505115208 71 213 11.0 16.0 0.00 0.00 0.00 90 1009.1
20260505114706 71 205 12.0 16.0 0.00 0.00 0.00 90 1009.0
20260505114143 71 219 6.0 11.0 0.00 0.00 0.00 90 1009.0
20260505113639 71 201 8.0 12.0 0.00 0.00 0.00 90 1009.0
20260505113134 71 197 9.0 14.0 0.00 0.00 0.00 90 1009.0
20260505112701 71 220 9.0 14.0 0.00 0.00 0.00 90 1009.0
20260505111615 71 219 12.0 18.0 0.00 0.00 0.00 90 1009.0
20260505111112 71 220 10.0 14.0 0.00 0.00 0.00 90 1008.8
20260505110717 71 207 12.0 14.0 0.00 0.00 0.00 90 1008.8
20260505102145 71 211 11.0 16.0 0.00 0.00 0.00 90 1009.0
20260505101642 71 211 12.0 16.0 0.00 0.00 0.00 90 1009.0
20260505101147 71 198 12.0 20.0 0.00 0.00 0.00 90 1009.1
20260505100210 71 217 11.0 20.0 0.00 0.00 0.00 90 1009.4
20260505095705 71 212 13.0 20.0 0.00 0.00 0.00 90 1009.2
20260505095157 71 212 12.0 16.0 0.00 0.00 0.00 90 1009.2
20260505094653 71 197 10.0 19.0 0.00 0.00 0.00 90 1009.1
20260505094153 71 209 13.0 19.0 0.00 0.00 0.00 90 1009.2
20260505093649 71 205 11.0 19.0 0.00 0.00 0.00 90 1009.4
20260505093145 71 219 13.0 19.0 0.00 0.00 0.00 90 1009.4
20260505092211 71 193 13.0 21.0 0.00 0.00 0.00 89 1009.3
20260505091717 71 193 10.0 18.0 0.00 0.00 0.00 89 1009.2
20260505091154 71 202 11.0 18.0 0.00 0.00 0.00 89 1009.2
20260505090644 71 206 10.0 15.0 0.00 0.00 0.00 89 1009.4
20260505090141 71 201 11.0 15.0 0.00 0.00 0.00 89 1009.7
20260505085643 71 204 10.0 15.0 0.00 0.00 0.00 89 1009.4
20260505085141 71 199 10.0 19.0 0.00 0.00 0.00 89 1009.4
20260505084646 71 203 10.0 21.0 0.00 0.00 0.00 89 1009.5
20260505084149 71 211 12.0 21.0 0.00 0.00 0.00 89 1009.7
20260505083648 71 199 10.0 13.0 0.00 0.00 0.00 89 1009.7
20260505083144 71 197 11.0 13.0 0.00 0.00 0.00 89 1009.7
20260505082640 71 188 9.0 14.0 0.00 0.00 0.00 89 1009.6
20260505082133 71 202 9.0 13.0 0.00 0.00 0.00 89 1010.0
20260505081632 71 201 9.0 18.0 0.00 0.00 0.00 89 1009.8
20260505081113 71 207 11.0 18.0 0.00 0.00 0.00 89 1009.8
20260505080613 71 209 10.0 14.0 0.00 0.00 0.00 89 1010.0
20260505080124 71 195 9.0 16.0 0.00 0.00 0.00 89 1010.1
20260505075620 71 205 13.0 16.0 0.00 0.00 0.00 89 1010.0
20260505075144 71 188 11.0 16.0 0.00 0.00 0.00 89 1010.1
20260505074624 71 202 10.0 15.0 0.00 0.00 0.00 88 1010.1
20260505074123 71 201 13.0 18.0 0.00 0.00 0.00 88 1010.2
20260505073643 71 201 9.0 18.0 0.00 0.00 0.00 88 1010.3
20260505073143 71 180 11.0 18.0 0.00 0.00 0.00 88 1010.4
20260505072656 71 191 12.0 18.0 0.00 0.00 0.00 88 1010.5
20260505072149 71 194 12.0 19.0 0.00 0.00 0.00 88 1010.5
20260505071645 71 193 13.0 21.0 0.00 0.00 0.00 88 1010.7
20260505071141 71 217 14.0 23.0 0.00 0.00 0.00 88 1010.6
20260505070626 71 188 12.0 20.0 0.00 0.00 0.00 88 1010.9
20260505070119 71 192 12.0 15.0 0.00 0.00 0.00 88 1010.9
20260505065614 71 197 11.0 16.0 0.00 0.00 0.00 88 1011.1
20260505065127 71 191 10.0 20.0 0.00 0.00 0.00 88 1011.0
20260505064641 71 180 12.0 20.0 0.00 0.00 0.00 88 1011.1
20260505064113 71 200 10.0 19.0 0.00 0.00 0.00 88 1011.1
20260505063626 71 182 11.0 16.0 0.00 0.00 0.00 88 1011.2
20260505063118 71 178 11.0 16.0 0.00 0.00 0.00 88 1011.1
20260505062615 71 216 12.0 16.0 0.00 0.00 0.00 88 1011.2
20260505062128 71 190 10.0 14.0 0.00 0.00 0.00 88 1011.2
20260505061622 71 201 9.0 16.0 0.00 0.00 0.00 87 1011.2
20260505061114 71 197 9.0 15.0 0.00 0.00 0.00 87 1011.3
20260505060627 71 188 9.0 14.0 0.00 0.00 0.00 87 1011.4
20260505060116 71 184 11.0 15.0 0.00 0.00 0.00 87 1011.2
20260505055612 71 180 11.0 16.0 0.00 0.00 0.00 87 1011.2
20260505055124 71 187 11.0 18.0 0.00 0.00 0.00 87 1011.2
20260505054617 71 180 13.0 19.0 0.00 0.00 0.00 87 1011.1
20260505054112 71 197 13.0 19.0 0.00 0.00 0.00 87 1011.3
20260505053625 72 193 12.0 19.0 0.00 0.00 0.00 87 1011.3
20260505053118 72 191 12.0 19.0 0.00 0.00 0.00 87 1011.3
20260505052612 72 180 12.0 20.0 0.00 0.00 0.00 87 1011.3
20260505052125 72 192 14.0 20.0 0.00 0.00 0.00 87 1011.2
20260505051618 72 172 10.0 18.0 0.00 0.00 0.00 87 1011.3
20260505051112 72 172 10.0 14.0 0.00 0.00 0.00 87 1011.2
20260505050627 72 171 10.0 14.0 0.00 0.00 0.00 86 1011.2
20260505050121 72 174 11.0 15.0 0.00 0.00 0.00 86 1011.1
20260505041700 73 150 12.0 15.0 0.00 0.00 0.00 85 1011.2
20260505041157 73 178 12.0 19.0 0.00 0.00 0.00 85 1011.2
20260505040635 73 152 13.0 19.0 0.00 0.00 0.00 85 1011.2
20260505040133 73 158 13.0 18.0 0.00 0.00 0.00 84 1011.2
20260505035626 74 161 11.0 16.0 0.00 0.00 0.00 84 1011.3
20260505035205 74 149 11.0 16.0 0.00 0.00 0.00 83 1011.0
20260505034618 74 160 11.0 16.0 0.00 0.00 0.00 83 1011.0
20260505034119 74 159 11.0 16.0 0.00 0.00 0.00 83 1011.1
20260505033617 74 175 10.0 16.0 0.00 0.00 0.00 83 1011.2
20260505033114 74 164 10.0 12.0 0.00 0.00 0.00 83 1011.2
20260505032711 74 165 10.0 15.0 0.00 0.00 0.00 82 1011.2
20260505032151 74 162 11.0 15.0 0.00 0.00 0.00 82 1011.1
20260505031702 75 169 11.0 15.0 0.00 0.00 0.00 82 1010.9
20260505030710 75 173 9.0 14.0 0.00 0.00 0.00 82 1011.1
20260505030147 75 158 11.0 14.0 0.00 0.00 0.00 82 1011.1
20260505025619 75 176 10.0 14.0 0.00 0.00 0.00 81 1011.1
20260505025222 75 174 10.0 14.0 0.00 0.00 0.00 81 1011.1
20260505024656 75 172 9.0 13.0 0.00 0.00 0.00 81 1011.2
20260505023705 75 179 9.0 12.0 0.00 0.00 0.00 81 1011.0
20260505023206 75 158 9.0 12.0 0.00 0.00 0.00 81 1011.0
20260505022705 75 171 9.0 12.0 0.00 0.00 0.00 80 1010.9
20260505022112 75 175 8.0 11.0 0.00 0.00 0.00 80 1011.0
20260505021651 75 186 9.0 12.0 0.00 0.00 0.00 80 1010.9
20260505021145 76 178 9.0 12.0 0.00 0.00 0.00 80 1010.7
20260505020646 76 172 7.0 13.0 0.00 0.00 0.00 80 1010.7
20260505020139 76 170 9.0 13.0 0.00 0.00 0.00 79 1010.7
20260505015636 76 179 8.0 13.0 0.00 0.00 0.00 80 1010.6
20260505015208 76 172 9.0 11.0 0.00 0.00 0.00 80 1010.6
20260505014623 76 172 8.0 12.0 0.00 0.00 0.00 79 1010.6
20260505014125 76 172 9.0 12.0 0.00 0.00 0.00 79 1010.6
20260505013626 76 168 8.0 13.0 0.00 0.00 0.00 78 1010.7
20260505013129 76 186 10.0 13.0 0.00 0.00 0.00 78 1010.7
20260505012627 76 184 9.0 12.0 0.00 0.00 0.00 78 1010.7
20260505012129 76 191 9.0 13.0 0.00 0.00 0.00 78 1010.8
20260505011632 76 187 10.0 15.0 0.00 0.00 0.00 77 1010.5
20260505011123 77 186 11.0 15.0 0.00 0.00 0.00 77 1010.4
20260505010642 77 172 10.0 19.0 0.00 0.00 0.00 77 1010.2
20260505010139 77 176 13.0 19.0 0.00 0.00 0.00 76 1010.4
20260505005624 77 169 14.0 16.0 0.00 0.00 0.00 75 1010.2
20260505005114 77 178 12.0 20.0 0.00 0.00 0.00 75 1010.3
20260505004627 77 172 14.0 18.0 0.00 0.00 0.00 74 1010.2
20260505004125 78 178 14.0 19.0 0.00 0.00 0.00 74 1010.3
20260505003727 78 175 14.0 19.0 0.00 0.00 0.00 73 1010.1
20260505003157 78 174 11.0 16.0 0.00 0.00 0.00 73 1010.2
20260505002651 78 175 12.0 22.0 0.00 0.00 0.00 71 1010.2
20260505002148 78 192 14.0 22.0 0.00 0.00 0.00 69 1010.1
20260505001703 78 196 13.0 20.0 0.00 0.00 0.00 70 1010.1
20260505001209 78 206 14.0 19.0 0.00 0.00 0.00 71 1010.1
20260505000626 78 192 13.0 18.0 0.00 0.00 0.00 71 1010.0
20260505000222 79 195 14.0 19.0 0.00 0.00 0.00 70 1010.2
20260504235644 78 194 14.0 21.0 0.00 0.00 0.00 71 1010.4
20260504234729 78 190 12.0 23.0 0.00 0.00 0.00 71 1010.5
20260504234147 78 187 15.0 28.0 0.00 0.00 0.00 70 1010.6
20260504233659 78 181 17.0 22.0 0.00 0.00 0.00 70 1010.7
20260504233159 78 203 14.0 21.0 0.00 0.00 0.00 70 1010.8
20260504232657 78 201 14.0 20.0 0.00 0.00 0.00 71 1011.0
20260504231711 78 196 16.0 24.0 0.00 0.00 0.00 70 1011.1
20260504231145 78 181 16.0 24.0 0.00 0.00 0.00 71 1010.9
20260504230642 78 207 12.0 20.0 0.00 0.00 0.00 71 1011.1
20260504225706 78 200 15.0 20.0 0.00 0.00 0.00 71 1011.2
20260504225144 78 190 13.0 22.0 0.00 0.00 0.00 70 1011.3
20260504224641 78 181 18.0 22.0 0.00 0.00 0.00 70 1011.3
20260504223706 78 219 14.0 25.0 0.00 0.00 0.00 70 1011.4
20260504222706 78 217 15.0 21.0 0.00 0.00 0.00 70 1011.6
20260504222201 78 199 16.0 20.0 0.00 0.00 0.00 71 1011.7
20260504221704 78 211 14.0 19.0 0.00 0.00 0.00 71 1011.6
20260504221213 78 193 13.0 19.0 0.00 0.00 0.00 71 1011.5
20260504220622 78 226 14.0 19.0 0.00 0.00 0.00 71 1011.4
20260504220119 77 207 14.0 20.0 0.00 0.00 0.00 71 1011.5
20260504215619 77 201 15.0 20.0 0.00 0.00 0.00 71 1011.7
20260504215116 78 197 14.0 21.0 0.00 0.00 0.00 70 1011.6
20260504214615 78 193 15.0 20.0 0.00 0.00 0.00 70 1011.6
20260504214137 78 200 11.0 19.0 0.00 0.00 0.00 71 1011.6
20260504213633 77 217 15.0 20.0 0.00 0.00 0.00 71 1011.8
20260504213115 77 199 13.0 20.0 0.00 0.00 0.00 71 1011.7
20260504212631 78 182 12.0 21.0 0.00 0.00 0.00 72 1011.7
20260504212219 77 228 16.0 23.0 0.00 0.00 0.00 71 1011.9
20260504211658 77 193 15.0 22.0 0.00 0.00 0.00 72 1011.9
20260504211151 77 193 15.0 22.0 0.00 0.00 0.00 72 1011.9
20260504210633 77 199 14.0 21.0 0.00 0.00 0.00 72 1012.0
20260504210112 77 195 12.0 21.0 0.00 0.00 0.00 71 1012.3
20260504205730 77 211 14.0 20.0 0.00 0.00 0.00 71 1012.4
20260504205201 77 206 14.0 20.0 0.00 0.00 0.00 71 1012.3
20260504204222 77 195 13.0 21.0 0.00 0.00 0.00 72 1012.7
20260504203659 77 200 17.0 23.0 0.00 0.00 0.00 71 1012.8
20260504203202 77 197 13.0 22.0 0.00 0.00 0.00 71 1012.9
20260504202208 77 198 15.0 22.0 0.00 0.00 0.00 72 1013.1
20260504201703 77 184 13.0 21.0 0.00 0.00 0.00 71 1013.1
20260504201144 77 217 12.0 21.0 0.00 0.00 0.00 72 1013.0
20260504200637 77 187 16.0 21.0 0.00 0.00 0.00 72 1013.0
20260504200159 77 190 12.0 19.0 0.00 0.00 0.00 72 1013.2
20260504195655 77 186 13.0 20.0 0.00 0.00 0.00 72 1013.3
20260504195149 77 183 15.0 20.0 0.00 0.00 0.00 72 1013.3
20260504194647 77 208 16.0 25.0 0.00 0.00 0.00 71 1013.3
20260504194152 76 211 18.0 25.0 0.00 0.00 0.00 72 1013.1
20260504193649 77 176 13.0 19.0 0.00 0.00 0.00 73 1013.4
20260504193144 77 192 11.0 19.0 0.00 0.00 0.00 72 1013.4
20260504192638 76 206 12.0 22.0 0.00 0.00 0.00 72 1013.5
20260504192141 76 210 16.0 25.0 0.00 0.00 0.00 71 1013.5
20260504191637 76 207 17.0 25.0 0.00 0.00 0.00 72 1013.7
20260504191232 76 209 14.0 18.0 0.00 0.00 0.00 72 1013.7
20260504190625 76 199 11.0 16.0 0.00 0.00 0.00 73 1013.6
20260504190143 76 209 11.0 23.0 0.00 0.00 0.00 72 1013.5
20260504185207 76 210 16.0 21.0 0.00 0.00 0.00 73 1013.9
20260504184706 76 197 13.0 21.0 0.00 0.00 0.00 73 1014.1
20260504184114 75 190 10.0 16.0 0.00 0.00 0.00 74 1014.0
20260504183631 75 184 12.0 18.0 0.00 0.00 0.00 74 1014.0
20260504183208 75 193 11.0 22.0 0.00 0.00 0.00 74 1014.2
20260504182208 75 174 14.0 24.0 0.00 0.00 0.00 74 1014.3
20260504181705 75 201 14.0 24.0 0.00 0.00 0.00 75 1014.3
20260504181128 74 220 12.0 21.0 0.00 0.00 0.00 76 1014.3
20260504180640 74 194 14.0 21.0 0.00 0.00 0.00 75 1014.3
20260504180141 74 199 14.0 20.0 0.00 0.00 0.00 75 1014.5
20260504175637 74 224 12.0 23.0 0.00 0.00 0.00 76 1014.6
20260504175132 74 202 14.0 25.0 0.00 0.00 0.00 76 1014.7
20260504174632 74 182 13.0 25.0 0.00 0.00 0.00 78 1015.0
20260504174125 73 211 11.0 26.0 0.00 0.00 0.00 77 1014.8
20260504173643 73 180 11.0 26.0 0.00 0.00 0.00 77 1014.9
20260504173121 73 166 14.0 21.0 0.00 0.00 0.00 78 1014.9
20260504172639 73 211 15.0 21.0 0.00 0.00 0.00 78 1014.8
20260504171617 73 226 9.0 19.0 0.00 0.00 0.00 79 1015.3
20260504171120 72 218 14.0 19.0 0.00 0.00 0.00 79 1015.3
20260504170613 72 202 13.0 16.0 0.00 0.00 0.00 80 1015.4
20260504170113 72 209 11.0 16.0 0.00 0.00 0.00 80 1015.6